TimeEDT,TemperatureF,Dew PointF,Humidity,Sea Level PressureIn,VisibilityMPH,Wind Direction,Wind SpeedMPH,Gust SpeedMPH,PrecipitationIn,Events,Conditions,WindDirDegrees,DateUTC
12:20 AM,66.2,64.4,94,29.75,2.5,Calm,Calm,-,N/A,,Mostly Cloudy,0,2013-08-14 04:20:00
12:29 AM,66.2,64.4,94,29.75,4.0,WNW,5.8,-,N/A,,Overcast,300,2013-08-14 04:29:00
12:38 AM,66.2,64.4,94,29.75,4.0,WNW,3.5,-,N/A,,Overcast,300,2013-08-14 04:38:00
12:53 AM,68.0,66.9,96,29.75,4.0,Calm,Calm,-,N/A,,Overcast,0,2013-08-14 04:53:00
1:24 AM,68.0,66.2,94,29.74,3.0,West,3.5,-,N/A,,Mostly Cloudy,280,2013-08-14 05:24:00
1:53 AM,68.0,66.0,93,29.74,3.0,WNW,3.5,-,N/A,,Partly Cloudy,290,2013-08-14 05:53:00
2:53 AM,66.9,66.0,97,29.74,7.0,Calm,Calm,-,N/A,,Clear,0,2013-08-14 06:53:00
3:53 AM,66.0,63.0,90,29.75,10.0,NNW,5.8,-,N/A,,Overcast,330,2013-08-14 07:53:00
4:53 AM,64.9,60.1,84,29.75,10.0,North,9.2,-,N/A,,Mostly Cloudy,350,2013-08-14 08:53:00
5:53 AM,63.0,57.0,81,29.79,10.0,North,4.6,-,N/A,,Partly Cloudy,350,2013-08-14 09:53:00
6:53 AM,62.1,57.0,84,29.81,10.0,NW,3.5,-,N/A,,Partly Cloudy,320,2013-08-14 10:53:00
7:53 AM,64.9,57.0,75,29.83,10.0,WNW,6.9,-,N/A,,Clear,300,2013-08-14 11:53:00
8:53 AM,66.0,55.0,68,29.81,10.0,NW,10.4,-,N/A,,Partly Cloudy,320,2013-08-14 12:53:00
9:18 AM,66.2,53.6,64,29.82,10.0,WNW,11.5,-,N/A,,Mostly Cloudy,290,2013-08-14 13:18:00
9:27 AM,66.2,53.6,64,29.82,10.0,NW,11.5,-,N/A,,Scattered Clouds,310,2013-08-14 13:27:00
9:53 AM,66.9,52.0,59,29.82,10.0,NW,13.8,-,N/A,,Clear,310,2013-08-14 13:53:00
10:53 AM,68.0,50.0,52,29.83,10.0,NW,13.8,19.6,N/A,,Partly Cloudy,310,2013-08-14 14:53:00
11:53 AM,70.0,50.0,49,29.84,10.0,NW,11.5,19.6,N/A,,Clear,310,2013-08-14 15:53:00
12:53 PM,72.0,50.0,46,29.85,10.0,WNW,10.4,20.7,N/A,,Clear,300,2013-08-14 16:53:00
1:53 PM,73.0,48.9,42,29.84,10.0,WNW,15.0,25.3,N/A,,Clear,300,2013-08-14 17:53:00
2:53 PM,72.0,48.9,44,29.84,10.0,NW,13.8,24.2,N/A,,Mostly Cloudy,310,2013-08-14 18:53:00
3:53 PM,73.9,50.0,43,29.85,10.0,WNW,17.3,25.3,N/A,,Scattered Clouds,300,2013-08-14 19:53:00
4:53 PM,75.9,51.1,42,29.86,10.0,WNW,10.4,20.7,N/A,,Mostly Cloudy,300,2013-08-14 20:53:00
5:53 PM,75.0,50.0,41,29.87,10.0,NW,13.8,23.0,N/A,,Clear,320,2013-08-14 21:53:00
6:53 PM,73.0,51.1,46,29.89,10.0,WNW,8.1,-,N/A,,Scattered Clouds,300,2013-08-14 22:53:00
7:53 PM,68.0,52.0,56,29.93,10.0,WNW,5.8,-,N/A,,Clear,290,2013-08-14 23:53:00
8:53 PM,66.0,50.0,56,29.96,10.0,NNW,5.8,-,N/A,,Clear,330,2013-08-15 00:53:00
9:53 PM,63.0,50.0,63,30.00,10.0,NNW,4.6,-,N/A,,Clear,340,2013-08-15 01:53:00
10:53 PM,62.1,50.0,65,30.02,10.0,NNW,5.8,-,N/A,,Clear,340,2013-08-15 02:53:00
11:53 PM,64.0,50.0,60,30.04,10.0,NNW,5.8,-,N/A,,Clear,340,2013-08-15 03:53:00